Location: Unspecified
(0.0000°N, 0.0000°E)
Time: 13:03:03
(UTC-04:00)

Hubble Space Telescope - Pass Details

Date: 02 October 2021
Orbit: 535 x 539 km, 28.5° (Epoch: 24 October)

Event Time Altitude Azimuth Distance (km) Brightness Sun altitude
Rises 14:14:26 0° 259° (WSW) 2,665 6.7 -6.3°
Reaches altitude 10° 14:18:42 10° 216° (SW) 1,778 4.0 -7.4°
Maximum altitude 14:19:24 10° 206° (SSW) 1,756 3.8 -7.5°
Drops below altitude 10° 14:20:07 10° 197° (SSW) 1,779 3.7 -7.7°
Sets 14:24:25 0° 154° (SSE) 2,672 4.1 -8.8°
